OPS 4682 DEB, 18268

Orbit data source: Space-Track

OPS 4682 DEB, 18268 is space debris in LEO originally from a launch on Sat, 03 Apr 1965 UTC launched from the Air Force Western Test Range (AFWTR). Debris objects in space refer to the collection of defunct objects orbiting the Earth. Examples of debris include non-operational satellites, rocket bodies, and fragments generated from explosions, collisions, or faulty payload assembly.

Loading next visibility...
Identifier
18268, 1965-027X
Orbit
LEO
Country
Flag of USUS
Related business
Manufacturer
Unknown
Mission
Spacecraft
Bus & Motor
Unknown
Mass
Unknown
Launch date (UTC)
1965-04-03 (61 years ago)
Launch vehicle
Unknown
Launch site
Air Force Western Test Range (AFWTR)
Object type
Payload
Rocket body
Debris
Shape & HBR
Unknown shape, 0.1 m
Radar Cross Section
Small (<0.1 m²)

Expand to show TLE details & history
Last TLE update: 2 days ago

TLE from 2 days ago
0 OPS 4682 DEB
1 18268U 65027X   26104.16731352  .00000133  00000-0  43110-3 0  9995
2 18268  90.2419   3.3021 0029015 231.6256 128.2258 12.97670161653634
Epoch: 2026-04-14T04:00Z
TLE epoch observation values (Epoch: 2026-04-14T04:00:55.888Z)
Latitude
0.00003°
Longitude
100.72178°
Altitude
1,287.884 km
Speed
7.206 km/s
True Right ascension
00h 13m 12s
True Declination
0° 00' 00"
Sunlit
Object was in daylight at epoch
Visualization orbit readout
Latitude
Unknown
Longitude
Unknown
Altitude
Unknown
Speed
Unknown
Apparent Right ascension
Unknown
Apparent Declination
Unknown
Sunlit
N/A
Visualization observer readout
Local Sidereal Time
19:53:36
Azimuth
Unknown
Elevation
Unknown
Doppler factor
Unknown
Orbital elements
Apogee altitude
1,290.545 km
Perigee altitude
1,246.173 km
Semi-major axis
7,646.496 km
Eccentricity
0.0029
Inclination
90.2419°
RAAN
3.3021°
Arg. of periapsis
231.6256°
True anomaly
128.48641°
Mean anomaly
128.2258°
Eccentric anomaly
128.35616°
Mean motion
3.24601 °/min
Orbital period
110.91 mins
BSTAR
0.0004311
Loading maneuver chart data...
Computing Atmospheric mass density...
Loading historical data...
Loading historical data...
Loading historical data...
Loading historical data...
Loading historical data...
Loading historical data...
Loading historical data...

Documentation

Showing up to 5 results
|